DW0110 Weather Reports


time (UTC)temp
C
wind
direction
speed
KPH
gust
KPH
rain 1hr
cm
rain 24hr
cm
rain mn
cm
humidity
%
barometer
mb
20260504050329 11 221 0.0 0.0 0.00 0.00 0.00 62 1008.4
20260504045822 11 221 0.0 0.0 0.00 0.00 0.00 61 1008.4
20260504045356 11 221 0.0 0.0 0.00 0.00 0.00 59 1008.5
20260504044827 11 221 0.0 0.0 0.00 0.00 0.00 61 1008.5
20260504044339 11 221 0.0 0.0 0.00 0.00 0.00 60 1008.4
20260504043830 11 221 0.0 0.0 0.00 0.00 0.00 59 1008.5
20260504043323 11 221 0.0 0.0 0.00 0.00 0.00 58 1008.5
20260504042859 11 221 0.0 0.0 0.00 0.00 0.00 58 1008.5
20260504042331 11 221 0.0 0.0 0.00 0.00 0.00 59 1008.5
20260504041825 11 221 0.0 0.0 0.00 0.00 0.00 58 1008.5
20260504041319 11 221 0.0 0.0 0.00 0.00 0.00 58 1008.4
20260504040836 11 221 0.0 0.0 0.00 0.00 0.00 57 1008.5
20260504040329 11 221 0.0 0.0 0.00 0.00 0.00 57 1008.4
20260504035823 12 221 0.0 0.0 0.00 0.00 0.00 57 1008.5
20260504035339 12 221 0.0 0.0 0.00 0.00 0.00 58 1008.4
20260504034851 12 221 0.0 0.0 0.00 0.00 0.00 57 1008.4
20260504034323 12 221 0.0 0.0 0.00 0.00 0.00 57 1008.4
20260504033839 12 221 0.0 0.0 0.00 0.00 0.00 57 1008.5
20260504033335 12 221 0.0 0.0 0.00 0.00 0.00 57 1008.4
20260504032828 12 221 0.0 0.0 0.00 0.00 0.00 56 1008.4
20260504032324 12 221 0.0 0.0 0.00 0.00 0.00 57 1008.5
20260504031834 12 221 0.0 0.0 0.00 0.00 0.00 56 1008.5
20260504031328 11 221 0.0 0.0 0.00 0.00 0.00 57 1008.4
20260504030843 11 221 0.0 0.0 0.00 0.00 0.00 58 1008.5
20260504030335 11 221 0.0 0.0 0.00 0.00 0.00 58 1008.5
20260504025832 11 221 0.0 0.0 0.00 0.00 0.00 59 1008.5
20260504025327 11 221 0.0 0.0 0.00 0.00 0.00 59 1008.6
20260504024820 11 221 0.0 0.0 0.00 0.00 0.00 61 1008.6
20260504024337 11 221 0.0 0.0 0.00 0.00 0.00 58 1008.7
20260504023830 11 221 0.0 0.0 0.00 0.00 0.00 58 1008.8
20260504023323 11 221 0.0 0.0 0.00 0.00 0.00 58 1008.8
20260504022839 11 221 0.0 0.0 0.00 0.00 0.00 57 1008.8
20260504022330 11 221 0.0 0.0 0.00 0.00 0.00 59 1008.9
20260504021823 12 221 0.0 0.0 0.00 0.00 0.00 59 1008.9
20260504021335 12 221 0.0 0.0 0.00 0.00 0.00 58 1008.9
20260504020826 12 221 0.0 0.0 0.00 0.00 0.00 57 1008.9
20260504020337 12 221 0.0 0.0 0.00 0.00 0.00 57 1008.8
20260504015830 12 221 0.0 0.0 0.00 0.00 0.00 56 1008.8
20260504015321 12 221 0.0 0.0 0.00 0.00 0.00 58 1008.8
20260504014831 11 221 0.0 1.6 0.00 0.00 0.00 58 1008.7
20260504014322 11 221 0.0 1.6 0.00 0.00 0.00 59 1008.7
20260504013841 11 221 0.0 3.2 0.00 0.00 0.00 60 1008.7
20260504013357 11 221 0.0 3.2 0.00 0.00 0.00 61 1008.8
20260504012829 11 221 0.0 0.0 0.00 0.00 0.00 62 1008.8
20260504012323 11 221 0.0 0.0 0.00 0.00 0.00 64 1009.0
20260504011836 11 221 0.0 0.0 0.00 0.00 0.00 64 1009.1
20260504011330 11 221 0.0 0.0 0.00 0.00 0.00 62 1009.2
20260504010823 11 221 0.0 11.3 0.00 0.00 0.00 63 1009.3
20260504010339 11 221 1.6 11.3 0.00 0.00 0.00 64 1009.1
20260504005832 11 221 0.0 1.6 0.00 0.00 0.00 66 1009.0
20260504005326 11 221 0.0 0.0 0.00 0.00 0.00 68 1009.0
20260504004823 11 221 0.0 8.0 0.00 0.00 0.00 68 1009.0
20260504004337 11 221 0.0 8.0 0.00 0.00 0.00 68 1009.1
20260504003831 11 221 0.0 6.4 0.00 0.00 0.00 68 1009.4
20260504003325 11 221 0.0 4.8 0.00 0.00 0.00 67 1009.5
20260504002838 11 221 0.0 9.7 0.00 0.00 0.00 66 1009.5
20260504002332 11 221 1.6 9.7 0.00 0.00 0.00 66 1009.5
20260504001825 11 221 0.0 12.9 0.00 0.00 0.00 65 1009.4
20260504001321 11 221 0.0 11.3 0.00 0.00 0.00 63 1009.4
20260504000835 11 221 3.2 11.3 0.00 0.00 0.00 62 1009.4
20260504000328 11 221 1.6 11.3 0.00 0.00 0.00 61 1009.3
20260503235823 11 221 0.0 19.3 0.00 0.00 0.00 60 1009.2
20260503235333 12 221 1.6 19.3 0.00 0.00 0.00 59 1009.1
20260503234825 12 221 3.2 16.1 0.00 0.00 0.00 59 1009.1
20260503234319 12 221 0.0 17.7 0.00 0.00 0.00 57 1009.2
20260503233835 12 221 3.2 19.3 0.00 0.00 0.00 56 1009.2
20260503233329 12 220 8.0 19.3 0.00 0.00 0.00 55 1009.3
20260503232848 12 219 0.0 17.7 0.00 0.00 0.00 53 1009.1
20260503232322 12 219 1.6 17.7 0.00 0.00 0.00 52 1009.1
20260503231834 13 218 0.0 11.3 0.00 0.00 0.00 51 1009.0
20260503231328 13 218 1.6 8.0 0.00 0.00 0.00 51 1008.8
20260503230825 13 218 0.0 6.4 0.00 0.00 0.00 49 1008.8
20260503230338 13 218 1.6 16.1 0.00 0.00 0.00 49 1008.7
20260503225831 13 218 0.0 17.7 0.00 0.00 0.00 48 1008.6
20260503225325 13 217 1.6 12.9 0.00 0.00 0.00 48 1008.5
20260503224819 13 217 0.0 8.0 0.00 0.00 0.00 47 1008.6
20260503224335 13 217 0.0 8.0 0.00 0.00 0.00 46 1008.6
20260503223829 13 217 0.0 6.4 0.00 0.00 0.00 46 1008.6
20260503223345 13 217 0.0 6.4 0.00 0.00 0.00 47 1008.5
20260503222838 13 217 0.0 0.0 0.00 0.00 0.00 48 1008.4
20260503222332 13 217 0.0 3.2 0.00 0.00 0.00 48 1008.4
20260503221828 13 217 0.0 6.4 0.00 0.00 0.00 46 1008.5
20260503221337 13 217 0.0 6.4 0.00 0.00 0.00 47 1008.5
20260503220829 13 217 0.0 9.7 0.00 0.00 0.00 47 1008.8
20260503220323 13 217 0.0 9.7 0.00 0.00 0.00 46 1008.7
20260503215838 13 217 0.0 12.9 0.00 0.00 0.00 46 1008.8
20260503215330 13 217 4.8 12.9 0.00 0.00 0.00 45 1008.9
20260503214825 13 217 0.0 12.9 0.00 0.00 0.00 45 1008.8
20260503214338 13 217 0.0 3.2 0.00 0.00 0.00 46 1008.7
20260503213828 13 217 0.0 14.5 0.00 0.00 0.00 45 1008.8
20260503213323 13 217 4.8 16.1 0.00 0.00 0.00 43 1008.8
20260503212858 13 216 1.6 16.1 0.00 0.00 0.00 45 1008.7
20260503212329 13 216 1.6 9.7 0.00 0.00 0.00 44 1008.5
20260503211823 13 216 1.6 9.7 0.00 0.00 0.00 44 1008.6
20260503211336 13 216 1.6 11.3 0.00 0.00 0.00 42 1008.5
20260503210850 14 216 1.6 16.1 0.00 0.00 0.00 43 1008.6
20260503210322 14 216 1.6 16.1 0.00 0.00 0.00 42 1008.6
20260503205836 14 216 3.2 12.9 0.00 0.00 0.00 42 1008.6
20260503205332 14 215 1.6 11.3 0.00 0.00 0.00 44 1008.6
20260503204825 13 215 0.0 8.0 0.00 0.00 0.00 45 1008.6
20260503204319 13 215 0.0 3.2 0.00 0.00 0.00 42 1008.8
20260503203835 13 215 0.0 8.0 0.00 0.00 0.00 44 1008.8
20260503203329 14 215 1.6 14.5 0.00 0.00 0.00 44 1008.9
20260503202826 13 215 4.8 14.5 0.00 0.00 0.00 43 1008.9
20260503202322 13 215 0.0 12.9 0.00 0.00 0.00 45 1009.0
20260503201839 13 215 0.0 12.9 0.00 0.00 0.00 44 1009.1
20260503201333 13 215 0.0 8.0 0.00 0.00 0.00 43 1009.1
20260503200826 13 215 0.0 8.0 0.00 0.00 0.00 44 1009.2
20260503200342 13 215 0.0 6.4 0.00 0.00 0.00 46 1009.4
20260503195835 13 215 0.0 9.7 0.00 0.00 0.00 46 1009.4
20260503195329 13 215 0.0 9.7 0.00 0.00 0.00 45 1009.5
20260503194822 13 215 0.0 1.6 0.00 0.00 0.00 45 1009.6
20260503194336 13 215 0.0 8.0 0.00 0.00 0.00 45 1009.6
20260503193830 13 215 0.0 8.0 0.00 0.00 0.00 43 1009.8
20260503193323 12 215 1.6 8.0 0.00 0.00 0.00 46 1009.8
20260503192835 12 215 0.0 6.4 0.00 0.00 0.00 45 1010.0
20260503192330 12 215 0.0 12.9 0.00 0.00 0.00 43 1010.2
20260503191846 12 215 3.2 12.9 0.00 0.00 0.00 42 1010.3
20260503191338 13 215 0.0 14.5 0.00 0.00 0.00 43 1010.3
20260503190831 13 215 1.6 14.5 0.00 0.00 0.00 44 1010.4
20260503190329 12 215 0.0 8.0 0.00 0.00 0.00 43 1010.4
20260503185844 12 215 1.6 8.0 0.00 0.00 0.00 45 1010.4
20260503185337 12 215 0.0 12.9 0.00 0.00 0.00 44 1010.5
20260503184828 12 215 0.0 16.1 0.00 0.00 0.00 43 1010.6
20260503184320 12 215 3.2 11.3 0.00 0.00 0.00 43 1010.7
20260503183835 12 215 0.0 6.4 0.00 0.00 0.00 45 1010.8
20260503183329 12 215 0.0 20.9 0.00 0.00 0.00 47 1010.7
20260503182844 12 215 4.8 20.9 0.00 0.00 0.00 44 1010.9
20260503182335 12 214 4.8 16.1 0.00 0.00 0.00 45 1010.9
20260503181826 12 213 3.2 11.3 0.00 0.00 0.00 47 1010.9
20260503181343 12 213 3.2 11.3 0.00 0.00 0.00 49 1010.9
20260503180838 12 213 0.0 11.3 0.00 0.00 0.00 49 1011.0
20260503180332 12 213 1.6 11.3 0.00 0.00 0.00 49 1011.0
20260503175826 12 213 0.0 11.3 0.00 0.00 0.00 49 1011.0
20260503175319 12 213 3.2 19.3 0.00 0.00 0.00 50 1010.9
20260503174836 12 213 0.0 19.3 0.00 0.00 0.00 50 1011.1
20260503174330 12 213 4.8 17.7 0.00 0.00 0.00 50 1011.1
20260503173826 12 213 3.2 11.3 0.00 0.00 0.00 49 1011.0
20260503173319 12 213 1.6 11.3 0.00 0.00 0.00 50 1011.1
20260503172836 12 213 0.0 12.9 0.00 0.00 0.00 50 1011.2
20260503172329 12 213 1.6 19.3 0.00 0.00 0.00 52 1011.3
20260503171823 12 213 0.0 19.3 0.00 0.00 0.00 51 1011.2
20260503171339 12 211 1.6 17.7 0.00 0.00 0.00 52 1011.2
20260503170851 12 211 0.0 12.9 0.00 0.00 0.00 53 1011.3
20260503170344 12 211 0.0 12.9 0.00 0.00 0.00 52 1011.5
20260503150838 9 211 0.0 0.0 0.00 0.00 0.00 58 1012.7
20260503150335 9 211 0.0 6.4 0.00 0.00 0.00 60 1012.8
20260503131325 6 211 0.0 0.0 0.00 0.00 0.00 65 1013.8
20260503130840 6 211 0.0 0.0 0.00 0.00 0.00 66 1013.8
20260503130350 6 211 0.0 0.0 0.00 0.00 0.00 67 1013.8
20260503110828 2 211 0.0 0.0 0.00 0.00 0.00 88 1013.6
20260503110323 2 211 0.0 0.0 0.00 0.00 0.00 88 1013.5
20260503090358 2 211 0.0 0.0 0.00 0.00 0.00 86 1013.1
20260503081327 2 211 0.0 0.0 0.00 0.00 0.00 84 1013.3
20260503080821 2 211 0.0 0.0 0.00 0.00 0.00 84 1013.3
20260503080335 2 211 0.0 0.0 0.00 0.00 0.00 84 1013.3
20260503072818 3 211 0.0 0.0 0.00 0.00 0.00 83 1013.3
20260503072331 3 211 0.0 0.0 0.00 0.00 0.00 83 1013.3
20260503071828 3 211 0.0 0.0 0.00 0.00 0.00 82 1013.3
20260503071321 3 211 0.0 0.0 0.00 0.00 0.00 82 1013.3
20260503070857 3 211 0.0 0.0 0.00 0.00 0.00 82 1013.3
20260503070330 3 211 0.0 0.0 0.00 0.00 0.00 82 1013.3